FIN64K LATI-EFHK

Flight info

Callsign FIN64K
Flight time 2h 44m
Altitude 38000
Route RINAV DCT ALELU DCT PARAK/N0440F370 DCT KOJOT DCT PODAN DCT BOKSU DCT GUNTA DCT SOKVA DCT ANAMA DCT KEMET DCT KEXLE DCT BEKNA DCT INTOR
Aircraft A319/M-SDE3FGHIRWY/LB1

Departure

Time 2026-05-07 14:22
Airport Tirana International Airport Mother Teresa (LATI)

Arrival

Time 2026-05-07 17:06
Airport Helsinki Vantaa Airport (EFHK)
Time Latitude Longitude Altitude Speed Heading
2026-05-07 13:51 41.42182 19.71488 125 ft 0 kts 265°
2026-05-07 14:15 41.42183 19.71489 124 ft 1 kts 265°
2026-05-07 14:15 41.42184 19.71509 124 ft 2 kts 265°
2026-05-07 14:15 41.42184 19.71529 124 ft 2 kts 292°
2026-05-07 14:16 41.42176 19.71546 124 ft 2 kts 321°
2026-05-07 14:16 41.42163 19.71555 124 ft 1 kts 348°
2026-05-07 14:16 41.42157 19.71556 124 ft 1 kts 356°
2026-05-07 14:16 41.42155 19.71556 124 ft 0 kts 354°
2026-05-07 14:18 41.42159 19.71555 124 ft 1 kts 354°
2026-05-07 14:19 41.42175 19.71553 124 ft 3 kts 354°
2026-05-07 14:19 41.42212 19.71548 123 ft 7 kts 353°
2026-05-07 14:19 41.42259 19.71578 122 ft 9 kts 79°
2026-05-07 14:19 41.42267 19.71672 122 ft 11 kts 83°
2026-05-07 14:20 41.42277 19.71779 123 ft 11 kts 83°
2026-05-07 14:20 41.42287 19.71883 124 ft 11 kts 83°
2026-05-07 14:20 41.42269 19.71953 124 ft 8 kts 172°
2026-05-07 14:20 41.42263 19.71954 124 ft 0 kts 175°
2026-05-07 14:21 41.42260 19.71954 124 ft 6 kts 175°
2026-05-07 14:21 41.41938 19.71995 128 ft 83 kts 174°
2026-05-07 14:21 41.41139 19.72102 136 ft 146 kts 175°
2026-05-07 14:21 41.40013 19.72261 471 ft 168 kts 176°
2026-05-07 14:22 41.38872 19.72437 1172 ft 165 kts 176°
2026-05-07 14:22 41.37761 19.72621 1832 ft 164 kts 175°
2026-05-07 14:22 41.36589 19.72820 2321 ft 177 kts 176°
2026-05-07 14:22 41.35312 19.72966 2754 ft 192 kts 178°
2026-05-07 14:23 41.33932 19.73103 3179 ft 208 kts 178°
2026-05-07 14:23 41.32414 19.73272 3614 ft 225 kts 176°
2026-05-07 14:23 41.30770 19.73473 4017 ft 248 kts 176°
2026-05-07 14:23 41.29021 19.73698 4631 ft 260 kts 175°
2026-05-07 14:24 41.27182 19.73939 5337 ft 270 kts 175°
2026-05-07 14:24 41.25325 19.73793 6086 ft 272 kts 198°
2026-05-07 14:24 41.23692 19.72555 6842 ft 275 kts 223°
2026-05-07 14:24 41.22612 19.70484 7562 ft 280 kts 248°
2026-05-07 14:25 41.22303 19.67952 8272 ft 285 kts 274°
2026-05-07 14:25 41.22873 19.65437 8998 ft 292 kts 300°
2026-05-07 14:25 41.24260 19.63486 9720 ft 297 kts 327°
2026-05-07 14:25 41.26203 19.62563 10380 ft 304 kts 354°
2026-05-07 14:26 41.28390 19.62755 10791 ft 318 kts
2026-05-07 14:26 41.30623 19.63186 11116 ft 335 kts
2026-05-07 14:26 41.32995 19.63627 11482 ft 350 kts
2026-05-07 14:26 41.35459 19.64066 12101 ft 356 kts
2026-05-07 14:27 41.37918 19.64493 12802 ft 358 kts
2026-05-07 14:27 41.40386 19.64908 13453 ft 360 kts
2026-05-07 14:27 41.42877 19.65320 14057 ft 365 kts
2026-05-07 14:27 41.45404 19.65737 14658 ft 369 kts
2026-05-07 14:28 41.47950 19.66160 15276 ft 374 kts
2026-05-07 14:28 41.50538 19.66591 15927 ft 377 kts
2026-05-07 14:28 41.53157 19.67028 16565 ft 380 kts
2026-05-07 14:28 41.55762 19.67463 17155 ft 383 kts
2026-05-07 14:29 41.58424 19.67908 17729 ft 386 kts
2026-05-07 14:29 41.61097 19.68354 18296 ft 390 kts
2026-05-07 14:29 41.63779 19.68815 18864 ft 394 kts
2026-05-07 14:29 41.66519 19.69465 19418 ft 398 kts
2026-05-07 14:30 41.69216 19.70240 19955 ft 402 kts
2026-05-07 14:30 41.71939 19.71049 20494 ft 406 kts
2026-05-07 14:30 41.74712 19.71876 21034 ft 409 kts
2026-05-07 14:30 41.77507 19.72707 21566 ft 412 kts
2026-05-07 14:31 41.80309 19.73536 22079 ft 416 kts
2026-05-07 14:31 41.83137 19.74373 22578 ft 419 kts
2026-05-07 14:31 41.85988 19.75214 23064 ft 421 kts
2026-05-07 14:31 41.88851 19.76060 23524 ft 425 kts
2026-05-07 14:32 41.91772 19.76925 23989 ft 429 kts
2026-05-07 14:32 41.94670 19.77784 24438 ft 432 kts
2026-05-07 14:32 41.97635 19.78594 24874 ft 434 kts
2026-05-07 14:32 42.00623 19.79178 25301 ft 436 kts
2026-05-07 14:33 42.03619 19.79590 25718 ft 438 kts
2026-05-07 14:33 42.06683 19.79966 26123 ft 442 kts
2026-05-07 14:33 42.09737 19.80330 26507 ft 446 kts
2026-05-07 14:33 42.12828 19.80703 26889 ft 450 kts
2026-05-07 14:34 42.15986 19.81097 27252 ft 454 kts
2026-05-07 14:34 42.19119 19.81495 27598 ft 457 kts
2026-05-07 14:34 42.22306 19.81868 27951 ft 460 kts
2026-05-07 14:34 42.25478 19.82266 28231 ft 466 kts
2026-05-07 14:35 42.28745 19.82689 28521 ft 470 kts
2026-05-07 14:35 42.32013 19.83107 28774 ft 475 kts
2026-05-07 14:35 42.35309 19.83515 29047 ft 479 kts
2026-05-07 14:35 42.38628 19.83922 29334 ft 482 kts
2026-05-07 14:36 42.41962 19.84346 29698 ft 483 kts
2026-05-07 14:36 42.45320 19.84778 30118 ft 482 kts
2026-05-07 14:36 42.48647 19.85156 30524 ft 481 kts
2026-05-07 14:36 42.51952 19.85408 30909 ft 480 kts
2026-05-07 14:37 42.55286 19.85621 31302 ft 480 kts
2026-05-07 14:37 42.61933 19.86024 32145 ft 478 kts
2026-05-07 14:37 42.65263 19.86227 32585 ft 476 kts
2026-05-07 14:38 42.68534 19.86429 33017 ft 475 kts
2026-05-07 14:38 42.71820 19.86633 33441 ft 473 kts
2026-05-07 14:38 42.75109 19.86837 33860 ft 471 kts
2026-05-07 14:38 42.78375 19.87041 34272 ft 469 kts
2026-05-07 14:39 42.81643 19.87245 34667 ft 468 kts
2026-05-07 14:39 42.84846 19.87446 35037 ft 466 kts
2026-05-07 14:39 42.88109 19.87651 35376 ft 465 kts
2026-05-07 14:39 42.91331 19.87853 35663 ft 465 kts
2026-05-07 14:40 42.94597 19.88059 35885 ft 466 kts
2026-05-07 14:40 42.97799 19.88262 36069 ft 466 kts
2026-05-07 14:40 43.01036 19.88468 36261 ft 466 kts
2026-05-07 14:40 43.04272 19.88674 36450 ft 465 kts 360°
2026-05-07 14:41 43.07513 19.88880 36624 ft 465 kts 360°
2026-05-07 14:41 43.10724 19.89083 36790 ft 465 kts 359°
2026-05-07 14:41 43.13964 19.89288 36957 ft 464 kts 359°
2026-05-07 14:41 43.17203 19.89493 37129 ft 464 kts 359°
2026-05-07 14:42 43.20426 19.89697 37298 ft 463 kts 359°
2026-05-07 14:42 43.23627 19.89899 37455 ft 463 kts 359°
2026-05-07 14:42 43.26852 19.90104 37613 ft 463 kts 359°
2026-05-07 14:42 43.30020 19.90306 37763 ft 462 kts 359°
2026-05-07 14:43 43.33231 19.90510 37896 ft 463 kts 359°
2026-05-07 14:43 43.36465 19.90717 38013 ft 463 kts 359°
2026-05-07 14:43 43.42952 19.91131 38102 ft 464 kts 359°
2026-05-07 14:44 43.49389 19.91544 38098 ft 464 kts 359°
2026-05-07 14:44 43.55855 19.91959 38090 ft 464 kts 359°
2026-05-07 14:45 43.62265 19.92371 38059 ft 464 kts 359°
2026-05-07 14:45 43.68732 19.92788 38035 ft 465 kts 359°
2026-05-07 14:46 43.75197 19.93207 38017 ft 465 kts 359°
2026-05-07 14:46 43.81619 19.93624 38007 ft 466 kts 359°
2026-05-07 14:47 43.88111 19.94040 38002 ft 466 kts 359°
2026-05-07 14:47 43.94569 19.94463 37997 ft 466 kts 359°
2026-05-07 14:48 44.01039 19.94891 37995 ft 467 kts 359°
2026-05-07 14:48 44.07500 19.95288 37990 ft 467 kts 359°
2026-05-07 14:49 44.13973 19.95722 37980 ft 467 kts 359°
2026-05-07 14:49 44.20438 19.96151 37962 ft 467 kts 359°
2026-05-07 14:50 44.26931 19.96588 37941 ft 467 kts 359°
2026-05-07 14:50 44.33405 19.97006 37927 ft 467 kts 359°
2026-05-07 14:51 44.39871 19.97418 37919 ft 467 kts 359°
2026-05-07 14:51 44.46354 19.97842 37914 ft 467 kts 359°
2026-05-07 14:52 44.52813 19.98269 37925 ft 467 kts 359°
2026-05-07 14:52 44.59300 19.98701 37965 ft 467 kts 359°
2026-05-07 14:53 44.65762 19.99132 38002 ft 467 kts 359°
2026-05-07 14:53 44.72315 19.99570 38012 ft 467 kts 359°
2026-05-07 14:54 44.78805 20.00004 38015 ft 467 kts 359°
2026-05-07 14:54 44.85308 20.00441 38015 ft 467 kts 359°
2026-05-07 14:55 44.91809 20.00878 38033 ft 467 kts 359°
2026-05-07 14:55 44.98336 20.01321 38041 ft 466 kts 359°
2026-05-07 14:56 45.04759 20.01757 38024 ft 466 kts 359°
2026-05-07 14:56 45.11224 20.02195 38016 ft 466 kts 359°
2026-05-07 14:57 45.17741 20.02637 38014 ft 466 kts 359°
2026-05-07 14:57 45.24235 20.03078 38013 ft 466 kts 359°
2026-05-07 14:58 45.30697 20.03520 38013 ft 467 kts 359°
2026-05-07 14:58 45.37196 20.03966 38013 ft 467 kts 359°
2026-05-07 14:59 45.43687 20.04413 38011 ft 467 kts 359°
2026-05-07 14:59 45.50164 20.04859 38010 ft 467 kts 360°
2026-05-07 15:00 45.56660 20.05307 38008 ft 468 kts 360°
2026-05-07 15:00 45.63182 20.05758 38007 ft 468 kts 360°
2026-05-07 15:01 45.69675 20.06206 38005 ft 469 kts 360°
2026-05-07 15:01 45.76208 20.06658 38005 ft 469 kts 360°
2026-05-07 15:02 45.82681 20.07107 38004 ft 469 kts 360°
2026-05-07 15:02 45.89182 20.07559 38004 ft 469 kts 360°
2026-05-07 15:03 45.95715 20.08013 38003 ft 469 kts 360°
2026-05-07 15:03 46.02267 20.08469 38003 ft 469 kts 360°
2026-05-07 15:04 46.08740 20.08920 38002 ft 469 kts 360°
2026-05-07 15:04 46.15300 20.09596 38002 ft 471 kts
2026-05-07 15:05 46.21764 20.11308 38004 ft 473 kts 11°
2026-05-07 15:05 46.28146 20.13576 38005 ft 473 kts 12°
2026-05-07 15:06 46.34506 20.15869 38064 ft 475 kts 12°
2026-05-07 15:06 46.37711 20.17018 38193 ft 474 kts 12°
2026-05-07 15:06 46.40911 20.18163 38319 ft 473 kts 11°
2026-05-07 15:07 46.44084 20.19297 38439 ft 473 kts 11°
2026-05-07 15:07 46.47295 20.20445 38553 ft 473 kts 11°
2026-05-07 15:07 46.50457 20.21576 38663 ft 473 kts 11°
2026-05-07 15:07 46.53647 20.22717 38774 ft 473 kts 11°
2026-05-07 15:08 46.60040 20.25014 38936 ft 472 kts 11°
2026-05-07 15:08 46.66388 20.27301 38988 ft 472 kts 10°
2026-05-07 15:09 46.72758 20.29593 39015 ft 471 kts 10°
2026-05-07 15:09 46.79106 20.31880 39024 ft 471 kts 10°
2026-05-07 15:10 46.85432 20.34167 39011 ft 471 kts 10°
2026-05-07 15:10 46.91775 20.36467 39007 ft 471 kts 10°
2026-05-07 15:11 46.98146 20.38786 39005 ft 472 kts 11°
2026-05-07 15:11 47.04511 20.41108 39004 ft 473 kts 11°
2026-05-07 15:12 47.10851 20.43426 39004 ft 473 kts 11°
2026-05-07 15:12 47.17232 20.45763 39005 ft 473 kts 11°
2026-05-07 15:13 47.23618 20.48109 39005 ft 474 kts 11°
2026-05-07 15:13 47.29977 20.50451 39005 ft 474 kts 11°
2026-05-07 15:14 47.36401 20.52821 39005 ft 475 kts 11°
2026-05-07 15:14 47.42768 20.55177 39004 ft 475 kts 11°
2026-05-07 15:15 47.49166 20.57551 39004 ft 475 kts 11°
2026-05-07 15:15 47.55548 20.59927 39004 ft 475 kts 11°
2026-05-07 15:16 47.61953 20.62319 39004 ft 476 kts 11°
2026-05-07 15:16 47.68362 20.64716 39002 ft 476 kts 11°
2026-05-07 15:17 47.74772 20.67118 39000 ft 477 kts 12°
2026-05-07 15:17 47.81171 20.69523 38999 ft 477 kts 12°
2026-05-07 15:18 47.87588 20.71940 38999 ft 477 kts 11°
2026-05-07 15:18 47.93993 20.74358 38997 ft 477 kts 12°
2026-05-07 15:19 48.00448 20.76801 38994 ft 477 kts 11°
2026-05-07 15:19 48.06850 20.79230 38988 ft 477 kts 11°
2026-05-07 15:20 48.13260 20.81668 38970 ft 477 kts 12°
2026-05-07 15:20 48.19662 20.84107 38960 ft 478 kts 12°
2026-05-07 15:21 48.26089 20.86565 38964 ft 478 kts 12°
2026-05-07 15:21 48.32520 20.89032 38966 ft 478 kts 12°
2026-05-07 15:22 48.38945 20.91502 38968 ft 478 kts 12°
2026-05-07 15:22 48.45392 20.93986 38968 ft 479 kts 12°
2026-05-07 15:23 48.51827 20.96468 38969 ft 478 kts 12°
2026-05-07 15:23 48.58227 20.98945 38972 ft 478 kts 12°
2026-05-07 15:24 48.64680 21.01452 38977 ft 478 kts 12°
2026-05-07 15:24 48.71093 21.03949 38983 ft 478 kts 12°
2026-05-07 15:25 48.77546 21.06467 38980 ft 478 kts 12°
2026-05-07 15:25 48.83971 21.08979 38980 ft 478 kts 12°
2026-05-07 15:26 48.90390 21.11497 38975 ft 478 kts 12°
2026-05-07 15:26 48.96800 21.14212 38971 ft 480 kts 16°
2026-05-07 15:27 49.03014 21.17936 38967 ft 481 kts 22°
2026-05-07 15:27 49.09111 21.22079 38961 ft 481 kts 22°
2026-05-07 15:28 49.15237 21.26252 38957 ft 481 kts 22°
2026-05-07 15:28 49.21351 21.30398 38955 ft 481 kts 22°
2026-05-07 15:29 49.27473 21.34552 38956 ft 481 kts 22°
2026-05-07 15:29 49.33562 21.38696 38957 ft 481 kts 22°
2026-05-07 15:30 49.39798 21.42663 38960 ft 480 kts 17°
2026-05-07 15:30 49.46215 21.45495 38961 ft 478 kts
2026-05-07 15:31 49.52766 21.47488 38963 ft 478 kts
2026-05-07 15:31 49.59309 21.49393 38959 ft 478 kts
2026-05-07 15:32 49.65815 21.51318 38951 ft 478 kts
2026-05-07 15:32 49.72349 21.53271 38943 ft 477 kts
2026-05-07 15:33 49.78897 21.55239 38940 ft 478 kts
2026-05-07 15:33 49.85382 21.57195 38941 ft 478 kts
2026-05-07 15:34 49.91942 21.59178 38942 ft 478 kts
2026-05-07 15:34 49.98474 21.61159 38942 ft 478 kts
2026-05-07 15:35 50.04971 21.63135 38940 ft 478 kts
2026-05-07 15:35 50.11493 21.65124 38936 ft 478 kts
2026-05-07 15:36 50.18023 21.67121 38930 ft 478 kts
2026-05-07 15:36 50.24553 21.69124 38927 ft 478 kts
2026-05-07 15:37 50.31116 21.71143 38928 ft 478 kts
2026-05-07 15:37 50.37613 21.73146 38927 ft 478 kts
2026-05-07 15:38 50.44145 21.75166 38925 ft 478 kts
2026-05-07 15:38 50.50655 21.77185 38923 ft 478 kts
2026-05-07 15:39 50.57207 21.79224 38921 ft 479 kts
2026-05-07 15:39 50.63735 21.81262 38921 ft 479 kts
2026-05-07 15:40 50.70270 21.83307 38920 ft 479 kts
2026-05-07 15:40 50.76799 21.85354 38919 ft 479 kts
2026-05-07 15:41 50.83354 21.87415 38918 ft 479 kts
2026-05-07 15:41 50.89915 21.89484 38918 ft 479 kts
2026-05-07 15:42 50.96413 21.91540 38918 ft 479 kts
2026-05-07 15:42 51.02952 21.93614 38918 ft 479 kts
2026-05-07 15:43 51.09501 21.95698 38919 ft 479 kts
2026-05-07 15:43 51.16075 21.97797 38918 ft 479 kts
2026-05-07 15:44 51.22636 21.99898 38919 ft 479 kts
2026-05-07 15:44 51.29165 22.01987 38924 ft 479 kts
2026-05-07 15:45 51.35746 22.04101 38950 ft 478 kts
2026-05-07 15:45 51.42300 22.06216 38948 ft 478 kts
2026-05-07 15:46 51.52090 22.09387 38910 ft 478 kts
2026-05-07 15:47 51.58670 22.11527 38908 ft 478 kts
2026-05-07 15:47 51.65192 22.13654 38908 ft 478 kts
2026-05-07 15:48 51.71697 22.15782 38911 ft 478 kts
2026-05-07 15:48 51.78240 22.17929 38913 ft 479 kts
2026-05-07 15:49 51.84785 22.20083 38915 ft 479 kts
2026-05-07 15:49 51.91328 22.22244 38917 ft 479 kts
2026-05-07 15:50 51.97845 22.24399 38920 ft 479 kts
2026-05-07 15:50 52.04369 22.26564 38921 ft 479 kts
2026-05-07 15:51 52.10911 22.28743 38919 ft 479 kts
2026-05-07 15:51 52.17429 22.30920 38918 ft 479 kts
2026-05-07 15:52 52.24005 22.33122 38921 ft 479 kts
2026-05-07 15:52 52.30511 22.35311 38928 ft 479 kts
2026-05-07 15:53 52.37033 22.37511 38935 ft 479 kts
2026-05-07 15:53 52.43554 22.39717 38937 ft 479 kts
2026-05-07 15:54 52.50104 22.41939 38936 ft 479 kts
2026-05-07 15:54 52.56650 22.44166 38936 ft 479 kts
2026-05-07 15:55 52.63156 22.46384 38933 ft 479 kts
2026-05-07 15:55 52.69723 22.48630 38930 ft 479 kts
2026-05-07 15:56 52.76262 22.50874 38926 ft 479 kts
2026-05-07 15:56 52.82806 22.53128 38924 ft 479 kts
2026-05-07 15:57 52.89331 22.55380 38921 ft 479 kts
2026-05-07 15:57 52.95844 22.57636 38915 ft 479 kts
2026-05-07 15:58 53.02349 22.59897 38908 ft 479 kts
2026-05-07 15:58 53.08894 22.62178 38906 ft 479 kts
2026-05-07 15:59 53.15439 22.64466 38903 ft 480 kts
2026-05-07 15:59 53.22009 22.66769 38902 ft 480 kts
2026-05-07 16:00 53.28537 22.69066 38901 ft 480 kts
2026-05-07 16:00 53.35037 22.71357 38900 ft 480 kts
2026-05-07 16:01 53.41555 22.73664 38899 ft 480 kts
2026-05-07 16:01 53.48054 22.75972 38897 ft 480 kts
2026-05-07 16:02 53.54632 22.78314 38896 ft 480 kts
2026-05-07 16:02 53.61137 22.80640 38894 ft 480 kts
2026-05-07 16:03 53.67686 22.82990 38895 ft 480 kts
2026-05-07 16:03 53.74203 22.85335 38900 ft 481 kts
2026-05-07 16:04 53.80744 22.87694 38906 ft 481 kts
2026-05-07 16:04 53.87031 22.89969 38907 ft 481 kts
2026-05-07 16:05 53.93559 22.92338 38909 ft 481 kts
2026-05-07 16:05 54.00109 22.94723 38911 ft 481 kts
2026-05-07 16:06 54.06645 22.97111 38880 ft 481 kts
2026-05-07 16:06 54.13163 22.99496 38866 ft 481 kts
2026-05-07 16:07 54.19695 23.01891 38898 ft 481 kts
2026-05-07 16:07 54.26264 23.04309 38914 ft 481 kts
2026-05-07 16:08 54.32787 23.06683 38920 ft 480 kts
2026-05-07 16:08 54.39356 23.08798 38923 ft 480 kts
2026-05-07 16:09 54.45919 23.10884 38924 ft 480 kts
2026-05-07 16:09 54.52459 23.12989 38927 ft 480 kts
2026-05-07 16:10 54.59073 23.15131 38929 ft 481 kts
2026-05-07 16:10 54.65607 23.17255 38932 ft 481 kts
2026-05-07 16:11 54.72230 23.19417 38934 ft 481 kts
2026-05-07 16:11 54.78782 23.21559 38937 ft 481 kts
2026-05-07 16:12 54.85321 23.23704 38938 ft 481 kts
2026-05-07 16:12 54.91897 23.25870 38939 ft 481 kts
2026-05-07 16:13 54.98443 23.28035 38941 ft 481 kts
2026-05-07 16:13 55.04981 23.30204 38946 ft 481 kts
2026-05-07 16:14 55.11544 23.32388 38949 ft 481 kts
2026-05-07 16:14 55.18080 23.34570 38953 ft 481 kts
2026-05-07 16:15 55.24630 23.36765 38954 ft 481 kts
2026-05-07 16:15 55.31192 23.38970 38956 ft 481 kts
2026-05-07 16:16 55.37710 23.41167 38959 ft 481 kts
2026-05-07 16:16 55.44287 23.43393 38963 ft 482 kts
2026-05-07 16:17 55.50862 23.45625 38968 ft 482 kts
2026-05-07 16:17 55.57413 23.47856 38972 ft 482 kts
2026-05-07 16:18 55.63977 23.50099 38977 ft 481 kts
2026-05-07 16:18 55.70526 23.52345 38982 ft 480 kts
2026-05-07 16:19 55.77095 23.54605 38987 ft 481 kts
2026-05-07 16:19 55.83655 23.56871 38991 ft 482 kts
2026-05-07 16:20 55.90228 23.59147 38996 ft 482 kts
2026-05-07 16:20 55.96794 23.61429 38998 ft 482 kts
2026-05-07 16:21 56.03384 23.63727 39002 ft 482 kts
2026-05-07 16:21 56.09929 23.66017 39003 ft 482 kts
2026-05-07 16:22 56.16519 23.68330 39008 ft 482 kts
2026-05-07 16:22 56.22815 23.70550 38988 ft 482 kts
2026-05-07 16:23 56.29386 23.72866 39003 ft 482 kts
2026-05-07 16:23 56.35941 23.75188 39008 ft 482 kts
2026-05-07 16:24 56.42538 23.77490 39008 ft 482 kts
2026-05-07 16:24 56.49069 23.79729 39007 ft 482 kts
2026-05-07 16:25 56.55655 23.81992 39005 ft 482 kts
2026-05-07 16:25 56.62240 23.84265 39002 ft 482 kts
2026-05-07 16:26 56.68787 23.86540 38998 ft 481 kts
2026-05-07 16:26 56.75316 23.88813 38997 ft 481 kts
2026-05-07 16:27 56.81891 23.91111 38995 ft 481 kts
2026-05-07 16:27 56.88422 23.93399 38995 ft 480 kts
2026-05-07 16:28 56.94952 23.95695 38993 ft 480 kts
2026-05-07 16:28 57.01508 23.98005 38992 ft 480 kts
2026-05-07 16:29 57.08010 24.00304 38991 ft 479 kts
2026-05-07 16:29 57.14515 24.02614 38991 ft 479 kts
2026-05-07 16:30 57.21072 24.04951 38999 ft 479 kts
2026-05-07 16:30 57.27587 24.07283 39003 ft 479 kts
2026-05-07 16:31 57.34081 24.09612 38996 ft 479 kts
2026-05-07 16:31 57.40611 24.11963 38994 ft 478 kts
2026-05-07 16:32 57.47121 24.14316 38996 ft 478 kts
2026-05-07 16:32 57.53592 24.16663 38999 ft 478 kts
2026-05-07 16:33 57.60106 24.19034 39003 ft 477 kts
2026-05-07 16:33 57.66595 24.21404 39004 ft 477 kts
2026-05-07 16:34 57.73098 24.23787 39006 ft 477 kts
2026-05-07 16:34 57.79538 24.26151 39005 ft 477 kts
2026-05-07 16:35 57.86041 24.28545 39006 ft 477 kts
2026-05-07 16:35 57.92534 24.30920 39007 ft 476 kts
2026-05-07 16:36 57.98996 24.33135 39009 ft 476 kts
2026-05-07 16:36 58.05494 24.35875 39010 ft 478 kts
2026-05-07 16:37 58.11935 24.38868 39001 ft 478 kts
2026-05-07 16:37 58.18389 24.41803 38999 ft 478 kts
2026-05-07 16:38 58.24814 24.44691 39005 ft 478 kts
2026-05-07 16:38 58.31273 24.47589 39006 ft 478 kts
2026-05-07 16:39 58.37755 24.50506 39005 ft 478 kts
2026-05-07 16:39 58.44193 24.53414 39004 ft 478 kts
2026-05-07 16:40 58.50660 24.56347 39003 ft 478 kts
2026-05-07 16:40 58.53883 24.57811 38807 ft 481 kts
2026-05-07 16:40 58.57140 24.59292 38329 ft 483 kts
2026-05-07 16:40 58.60379 24.60770 37738 ft 485 kts
2026-05-07 16:41 58.63649 24.62265 37118 ft 486 kts
2026-05-07 16:41 58.66938 24.63773 36517 ft 487 kts
2026-05-07 16:41 58.70216 24.65280 35971 ft 486 kts
2026-05-07 16:41 58.73510 24.66796 35435 ft 487 kts
2026-05-07 16:42 58.76800 24.68314 34864 ft 489 kts
2026-05-07 16:42 58.80086 24.69797 34268 ft 489 kts
2026-05-07 16:42 58.83403 24.70898 33656 ft 488 kts
2026-05-07 16:42 58.86750 24.71783 32974 ft 489 kts
2026-05-07 16:43 58.90084 24.72611 32257 ft 490 kts
2026-05-07 16:43 58.93456 24.73452 31513 ft 491 kts
2026-05-07 16:43 58.96832 24.74313 30750 ft 492 kts
2026-05-07 16:43 59.00227 24.75196 29983 ft 492 kts
2026-05-07 16:44 59.03584 24.76085 29384 ft 485 kts
2026-05-07 16:44 59.06888 24.76969 28782 ft 479 kts
2026-05-07 16:44 59.10151 24.77844 28148 ft 475 kts
2026-05-07 16:44 59.13380 24.78711 27473 ft 470 kts
2026-05-07 16:45 59.16597 24.79575 26807 ft 465 kts
2026-05-07 16:45 59.19785 24.80433 26148 ft 460 kts
2026-05-07 16:45 59.22944 24.81286 25474 ft 455 kts
2026-05-07 16:45 59.26018 24.82119 24824 ft 450 kts
2026-05-07 16:46 59.29103 24.82956 24178 ft 445 kts
2026-05-07 16:46 59.32146 24.83783 23497 ft 441 kts
2026-05-07 16:46 59.35149 24.84601 22912 ft 435 kts
2026-05-07 16:46 59.38102 24.85409 22452 ft 426 kts
2026-05-07 16:47 59.40999 24.86202 22027 ft 418 kts
2026-05-07 16:47 59.43848 24.86981 21611 ft 409 kts
2026-05-07 16:47 59.46620 24.87740 21207 ft 402 kts
2026-05-07 16:47 59.49356 24.88488 20821 ft 398 kts
2026-05-07 16:48 59.52101 24.89237 20415 ft 395 kts
2026-05-07 16:48 59.54771 24.89968 20005 ft 392 kts
2026-05-07 16:48 59.57465 24.90708 19582 ft 389 kts
2026-05-07 16:48 59.60152 24.91449 19156 ft 386 kts
2026-05-07 16:49 59.62779 24.92176 18737 ft 384 kts
2026-05-07 16:49 59.65408 24.92905 18315 ft 381 kts
2026-05-07 16:49 59.67998 24.93624 17897 ft 378 kts
2026-05-07 16:49 59.70599 24.94347 17473 ft 375 kts
2026-05-07 16:50 59.73197 24.95070 17047 ft 372 kts
2026-05-07 16:50 59.75725 24.95775 16628 ft 370 kts
2026-05-07 16:50 59.78263 24.96484 16206 ft 367 kts
2026-05-07 16:50 59.80774 24.97186 15784 ft 364 kts
2026-05-07 16:51 59.83252 24.97881 15363 ft 361 kts
2026-05-07 16:51 59.85714 24.98572 14939 ft 357 kts
2026-05-07 16:51 59.88161 24.99261 14516 ft 352 kts
2026-05-07 16:51 59.90565 24.99937 14096 ft 349 kts
2026-05-07 16:52 59.92942 25.00613 13677 ft 345 kts
2026-05-07 16:52 59.95316 25.01282 13254 ft 340 kts
2026-05-07 16:52 59.97615 25.01936 12840 ft 336 kts
2026-05-07 16:52 59.99941 25.02378 12412 ft 333 kts 353°
2026-05-07 16:53 60.02172 25.01643 12084 ft 326 kts 345°
2026-05-07 16:53 60.04438 25.01458 11809 ft 334 kts
2026-05-07 16:53 60.06640 25.02948 11532 ft 335 kts 22°
2026-05-07 16:53 60.08695 25.05040 11031 ft 333 kts 25°
2026-05-07 16:54 60.10735 25.07242 10494 ft 332 kts 25°
2026-05-07 16:54 60.12751 25.09432 10245 ft 322 kts 25°
2026-05-07 16:54 60.14667 25.11511 10045 ft 311 kts 25°
2026-05-07 16:54 60.16523 25.13518 9841 ft 300 kts 26°
2026-05-07 16:55 60.18326 25.15458 9649 ft 290 kts 26°
2026-05-07 16:55 60.20094 25.17349 9395 ft 283 kts 26°
2026-05-07 16:55 60.21815 25.19174 9059 ft 280 kts 26°
2026-05-07 16:55 60.23518 25.20966 8719 ft 277 kts 25°
2026-05-07 16:56 60.25264 25.22423 8349 ft 272 kts
2026-05-07 16:56 60.27133 25.22284 7979 ft 267 kts 344°
2026-05-07 16:56 60.30518 25.19528 7277 ft 263 kts 336°
2026-05-07 16:57 60.32180 25.17991 6903 ft 262 kts 335°
2026-05-07 16:57 60.33822 25.16461 6513 ft 260 kts 335°
2026-05-07 16:57 60.35438 25.14859 6115 ft 259 kts 332°
2026-05-07 16:57 60.36981 25.13093 5875 ft 257 kts 330°
2026-05-07 16:58 60.38541 25.11262 5581 ft 259 kts 330°
2026-05-07 16:58 60.40086 25.09450 5199 ft 257 kts 330°
2026-05-07 16:58 60.41627 25.07643 4819 ft 256 kts 330°
2026-05-07 16:58 60.43153 25.05857 4444 ft 254 kts 330°
2026-05-07 16:59 60.44670 25.04085 4067 ft 248 kts 330°
2026-05-07 16:59 60.46143 25.02364 3689 ft 243 kts 330°
2026-05-07 16:59 60.47585 25.00680 3310 ft 238 kts 330°
2026-05-07 16:59 60.48996 24.99034 2939 ft 234 kts 330°
2026-05-07 17:00 60.50422 24.97450 2534 ft 234 kts 325°
2026-05-07 17:00 60.51496 24.95005 2127 ft 234 kts 293°
2026-05-07 17:00 60.51728 24.91845 1995 ft 229 kts 261°
2026-05-07 17:00 60.51348 24.88724 1994 ft 230 kts 252°
2026-05-07 17:01 60.50845 24.85632 1988 ft 230 kts 251°
2026-05-07 17:01 60.50168 24.82753 1971 ft 229 kts 230°
2026-05-07 17:01 60.48886 24.80945 1972 ft 220 kts 198°
2026-05-07 17:01 60.47413 24.80502 1975 ft 218 kts 173°
2026-05-07 17:02 60.46063 24.81680 1978 ft 205 kts 143°
2026-05-07 17:02 60.45004 24.83446 1980 ft 192 kts 144°
2026-05-07 17:02 60.43948 24.84971 2046 ft 177 kts 149°
2026-05-07 17:02 60.42946 24.86210 2000 ft 162 kts 152°
2026-05-07 17:03 60.42016 24.87255 1969 ft 148 kts 154°
2026-05-07 17:03 60.41085 24.88227 1966 ft 151 kts 155°
2026-05-07 17:03 60.40154 24.89174 1790 ft 151 kts 155°
2026-05-07 17:03 60.39220 24.90124 1585 ft 149 kts 156°
2026-05-07 17:04 60.38321 24.91041 1396 ft 141 kts 155°
2026-05-07 17:04 60.37485 24.91899 1183 ft 129 kts 156°
2026-05-07 17:04 60.36690 24.92688 982 ft 126 kts 156°
2026-05-07 17:04 60.35914 24.93490 845 ft 125 kts 157°
2026-05-07 17:05 60.35145 24.94272 686 ft 124 kts 156°
2026-05-07 17:05 60.34385 24.95071 526 ft 123 kts 156°
2026-05-07 17:05 60.33618 24.95857 353 ft 122 kts 156°
2026-05-07 17:05 60.32871 24.96615 202 ft 121 kts 157°
2026-05-07 17:06 60.32226 24.97269 189 ft 80 kts 153°
2026-05-07 17:06 60.31821 24.97684 189 ft 57 kts 153°
2026-05-07 17:06 60.31536 24.97977 189 ft 27 kts 158°
2026-05-07 17:06 60.31412 24.97855 189 ft 12 kts 243°
2026-05-07 17:07 60.31412 24.97766 189 ft 8 kts 333°
2026-05-07 17:07 60.31469 24.97710 189 ft 9 kts 333°
2026-05-07 17:07 60.31534 24.97643 189 ft 11 kts 332°
2026-05-07 17:07 60.31609 24.97566 189 ft 12 kts 333°
2026-05-07 17:08 60.31700 24.97471 189 ft 16 kts 333°
2026-05-07 17:08 60.31808 24.97361 189 ft 18 kts 333°
2026-05-07 17:08 60.31924 24.97241 189 ft 19 kts 333°
2026-05-07 17:08 60.32050 24.97112 189 ft 21 kts 332°
2026-05-07 17:09 60.32185 24.96971 189 ft 22 kts 333°
2026-05-07 17:09 60.32303 24.96817 189 ft 15 kts 277°
2026-05-07 17:09 60.32237 24.96638 189 ft 16 kts 228°
2026-05-07 17:09 60.32156 24.96461 189 ft 17 kts 227°
2026-05-07 17:10 60.32072 24.96276 189 ft 18 kts 227°
2026-05-07 17:10 60.31990 24.96092 189 ft 17 kts 227°
2026-05-07 17:10 60.31911 24.95919 189 ft 16 kts 227°
2026-05-07 17:10 60.31836 24.95753 189 ft 16 kts 227°
2026-05-07 17:11 60.31760 24.95588 189 ft 16 kts 226°
2026-05-07 17:11 60.31674 24.95592 189 ft 14 kts 138°
2026-05-07 17:11 60.31601 24.95734 189 ft 12 kts 137°
2026-05-07 17:11 60.31558 24.95812 189 ft 2 kts 139°
2026-05-07 17:12 60.31551 24.95824 189 ft 0 kts 139°